DELTA 1 DEB, 29189

Orbit data source: Space-Track

DELTA 1 DEB, 29189 is space debris in LEO originally from a launch on Thu, 11 Jan 1968 UTC launched from the Air Force Western Test Range (AFWTR). Debris objects in space refer to the collection of defunct objects orbiting the Earth. Examples of debris include non-operational satellites, rocket bodies, and fragments generated from explosions, collisions, or faulty payload assembly.

Loading next visibility...
Identifier
29189, 1968-002N
Orbit
LEO
Country
Flag of USUS
Related business
Manufacturer
Unknown
Mission
Spacecraft
Bus & Motor
Unknown
Mass
Unknown
Launch date (UTC)
1968-01-11 (58 years ago)
Launch vehicle
Unknown
Launch site
Air Force Western Test Range (AFWTR)
Object type
Payload
Rocket body
Debris
Shape & HBR
Unknown shape, 0.1 m
Radar Cross Section
Small (<0.1 m²)

Expand to show TLE details & history
Last TLE update: 2 months ago

TLE from 2 months ago
0 DELTA 1 DEB
1 29189U 68002N   25327.64243236  .00000365  00000-0  10403-2 0  9998
2 29189 105.8286 248.5604 0240208 226.1802 256.0889 13.14732544502512
Epoch: 2025-11-23T15:25Z
TLE epoch observation values (Epoch: 2025-11-23T15:25:06.155Z)
Latitude
56.86039°
Longitude
160.02985°
Altitude
1,261.941 km
Speed
7.207 km/s
True Right ascension
06h 16m 38s
True Declination
56° 42' 47"
Sunlit
Object was in full shadow at epoch
Visualization orbit readout
Latitude
Unknown
Longitude
Unknown
Altitude
Unknown
Speed
Unknown
Apparent Right ascension
Unknown
Apparent Declination
Unknown
Sunlit
N/A
Visualization observer readout
Local Sidereal Time
21:44:04
Azimuth
Unknown
Elevation
Unknown
Doppler factor
Unknown
Orbital elements
Apogee altitude
1,384.751 km
Perigee altitude
1,020.558 km
Semi-major axis
7,580.791 km
Eccentricity
0.02402
Inclination
105.8286°
RAAN
248.5604°
Arg. of periapsis
226.1802°
True anomaly
253.43715°
Mean anomaly
256.0889°
Eccentric anomaly
254.761°
Mean motion
3.2883 °/min
Orbital period
109.48 mins
BSTAR
0.0010403
Loading maneuver chart data...
Computing Atmospheric mass density...
Loading historical data...
Loading historical data...
Loading historical data...
Loading historical data...
Loading historical data...
Loading historical data...
Loading historical data...

Documentation

Showing up to 5 results
|